QPF
0.02 0.01 0.01 0.02 0.05 0.03 0.00 0.00 0.00 0.00 0.00 0.00 0.00 0.00 0.00 0.00 0.00 0.00 0.00 0.00 0.00 0.00
0.01 0.02 0.02 0.04 0.03 0.01 0.00 0.00 0.00 0.00 0.00 0.00 0.00 0.00 0.00 0.00 0.00 0.00 0.00 0.00 0.00 0.00
0.01 0.02 0.03 0.05 0.04 0.02 0.01 0.00 0.00 0.00 0.00 0.00 0.00 0.00 0.00 0.00 0.00 0.00 0.00 0.00 0.00 0.00
0.04 0.06 0.08 0.07 0.07 0.03 0.01 0.00 0.00 0.00 0.00 0.00 0.00 0.00 0.00 0.00 0.00 0.00 0.00 0.00 0.00 0.00
0.06 0.09 0.07 0.05 0.03 0.01 0.00 0.00 0.00 0.00 0.00 0.00 0.00 0.00 0.00 0.00 0.00 0.00 0.00 0.00 0.00 0.00
0.05 0.06 0.04 0.02 0.01 0.00 0.00 0.00 0.00 0.00 0.00 0.00 0.00 0.00 0.00 0.00 0.00 0.00 0.00 0.00 0.00 0.00
0.03 0.02 0.01 0.00 0.00 0.00 0.00 0.00 0.00 0.00 0.00 0.00 0.00 0.00 0.00 0.00 0.00 0.00 0.00 0.00 0.00 0.00
0.00 0.00 0.00 0.00 0.00 0.00 0.00 0.00 0.00 0.00 0.00 0.00 0.00 0.00 0.00 0.00 0.00 0.00 0.00 0.00 0.00 0.00
0.01 0.00 0.00 0.00 0.00 0.00 0.00 0.00 0.00 0.00 0.00 0.00 0.00 0.00 0.00 0.00 0.00 0.00 0.00 0.00 0.00 0.00
0.00 0.00 0.00 0.00 0.00 0.00 0.00 0.00 0.00 0.00 0.00 0.00 0.00 0.00 0.00 0.00 0.00 0.00 0.00 0.00 0.00 0.00
0.00 0.00 0.00 0.00 0.00 0.00 0.00 0.00 0.00 0.00 0.00 0.00 0.00 0.00 0.00 0.00 0.00 0.00 0.00 0.00 0.00 0.00
0.00 0.00 0.00 0.00 0.00 0.00 0.00 0.00 0.00 0.00 0.00 0.00 0.00 0.00 0.00 0.00 0.00 0.00 0.00 0.00 0.00 0.00
0.00 0.00 0.00 0.00 0.00 0.00 0.00 0.00 0.00 0.00 0.00 0.00 0.00 0.00 0.00 0.00 0.00 0.00 0.00 0.00 0.00 0.00
0.00 0.00 0.00 0.00 0.00 0.00 0.00 0.00 0.00 0.00 0.00 0.00 0.00 0.00 0.00 0.00 0.00 0.00 0.00 0.00 0.00 0.00
MSLP
1019.66 1019.86 1020.48 1021.13 1021.75 1022.34 1022.74 1023.33 1024.19 1024.67 1024.89 1025.15 1025.52 1026.12 1026.57 1026.26 1026.25 1026.38 1026.67 1026.83 1026.91 1027.02
1019.05 1019.37 1019.89 1020.60 1021.35 1021.71 1022.34 1022.97 1023.70 1024.15 1024.69 1024.84 1025.25 1025.77 1025.77 1025.84 1025.90 1026.08 1026.36 1026.52 1026.79 1027.01
1018.04 1018.67 1019.40 1020.34 1020.83 1021.44 1022.14 1022.54 1023.27 1023.75 1024.06 1024.50 1025.25 1025.13 1025.06 1025.26 1025.46 1025.83 1026.08 1026.29 1026.56 1026.75
1017.46 1018.11 1019.04 1019.79 1020.37 1020.89 1021.54 1022.14 1022.67 1023.24 1023.63 1024.17 1024.23 1024.37 1024.94 1025.27 1025.32 1025.67 1025.86 1026.14 1026.30 1026.36
1017.24 1017.88 1018.61 1019.11 1019.74 1020.55 1020.99 1021.74 1022.27 1022.91 1023.61 1024.11 1024.33 1024.63 1024.71 1025.07 1025.19 1025.30 1025.45 1025.65 1025.85 1025.76
1017.13 1017.90 1018.48 1018.88 1019.60 1020.11 1020.39 1021.20 1021.97 1022.47 1022.87 1022.73 1023.42 1024.32 1024.66 1024.83 1024.87 1024.80 1024.84 1024.89 1024.98 1025.01
1017.46 1018.05 1018.60 1018.97 1019.53 1020.01 1020.49 1021.13 1021.35 1022.01 1022.37 1023.05 1023.59 1024.23 1024.83 1024.93 1024.79 1024.66 1024.53 1024.33 1024.32 1024.28
1017.18 1017.81 1018.37 1019.16 1019.80 1020.40 1020.74 1021.33 1021.85 1021.82 1022.73 1023.30 1023.95 1024.32 1024.36 1024.37 1024.34 1024.01 1023.80 1023.67 1023.56 1023.59
1017.38 1018.05 1018.68 1019.36 1020.10 1020.77 1021.43 1021.98 1022.11 1023.38 1023.88 1024.14 1023.79 1024.17 1024.42 1024.20 1023.82 1023.34 1023.19 1022.80 1022.79 1022.91
1017.73 1018.44 1019.12 1019.70 1020.33 1021.09 1021.62 1022.10 1023.08 1023.11 1023.38 1023.47 1023.92 1024.11 1023.85 1023.70 1023.46 1022.96 1022.46 1022.24 1022.17 1022.25
1018.29 1018.95 1019.63 1020.19 1020.91 1021.63 1022.10 1022.60 1022.60 1023.19 1023.55 1023.68 1023.56 1023.55 1023.42 1023.31 1022.96 1022.39 1021.90 1021.71 1021.60 1021.64
1019.20 1019.75 1020.42 1021.01 1021.60 1022.10 1022.49 1022.81 1022.92 1023.07 1023.19 1023.24 1022.99 1022.95 1022.98 1022.97 1022.50 1021.87 1021.36 1021.15 1021.00 1021.00
1020.21 1020.66 1021.09 1021.52 1021.87 1022.20 1022.53 1022.63 1022.73 1022.85 1022.85 1022.73 1022.65 1022.53 1022.52 1022.41 1022.04 1021.38 1020.91 1020.60 1020.42 1020.51
1020.97 1021.29 1021.59 1021.87 1022.16 1022.41 1022.52 1022.58 1022.57 1022.53 1022.40 1022.36 1022.21 1021.92 1021.81 1021.67 1021.48 1020.99 1020.41 1020.03 1019.68 1019.65
Thickness
5595 5592 5585 5577 5569 5562 5555 5546 5534 5526 5518 5512 5504 5495 5483 5478 5471 5465 5457 5448 5440 5431
5592 5588 5580 5572 5563 5557 5549 5539 5530 5521 5514 5506 5496 5487 5479 5470 5462 5455 5446 5437 5427 5416
5593 5585 5577 5566 5561 5552 5542 5534 5524 5515 5506 5496 5486 5478 5472 5462 5452 5442 5433 5425 5414 5403
5590 5582 5571 5563 5556 5547 5536 5527 5518 5508 5497 5487 5480 5472 5460 5449 5440 5431 5422 5410 5400 5390
5585 5577 5567 5560 5551 5539 5531 5519 5510 5498 5486 5476 5467 5457 5449 5439 5429 5421 5412 5400 5389 5380
5577 5567 5559 5553 5542 5533 5526 5514 5500 5489 5479 5473 5460 5447 5438 5428 5419 5412 5403 5393 5383 5372
5567 5558 5549 5541 5531 5522 5513 5500 5491 5479 5471 5459 5448 5437 5424 5413 5406 5398 5391 5382 5371 5362
5560 5549 5541 5529 5517 5507 5497 5486 5475 5470 5456 5445 5433 5424 5416 5404 5395 5389 5381 5372 5363 5353
5547 5537 5527 5515 5502 5491 5480 5469 5463 5446 5435 5426 5423 5409 5399 5391 5387 5380 5371 5364 5354 5342
5534 5523 5511 5500 5489 5477 5466 5457 5442 5436 5427 5418 5407 5397 5390 5382 5376 5369 5362 5353 5343 5333
5517 5506 5494 5484 5471 5459 5450 5438 5432 5421 5412 5402 5394 5385 5377 5369 5363 5357 5351 5341 5332 5322
5497 5486 5475 5464 5452 5441 5432 5423 5416 5407 5399 5390 5383 5373 5363 5354 5350 5345 5339 5329 5321 5310
5476 5465 5456 5446 5437 5427 5418 5411 5402 5394 5386 5378 5368 5357 5349 5341 5335 5331 5326 5319 5309 5297
5456 5447 5438 5428 5419 5411 5404 5397 5390 5382 5373 5363 5354 5347 5337 5329 5322 5315 5312 5304 5297 5288